Tracking 30703 objects as of 13-Jun-2025
HD Live streaming from Space Station
objects crossing your sky now

GLOBAL-19

Track GLOBAL-19 now!
10-day predictions


NORAD ID: 55982
Int'l Code: 2023-041B
Perigee: 454.9 km
Apogee: 462.6 km
Inclination: 42.0 °
Period: 93.6 minutes
Semi major axis: 6829 km
RCS: Unknown
Launch date: March 24, 2023
Source: United States (US)
Launch site: Rocket Lab Launch Complex (RLLC)
Your satellite tracking list
Your tracking list is empty




NASA's NSSDC Master Catalog

Two Line Element Set (TLE):
1 55982U 23041B   25163.49334573  .00012618  00000-0  33462-3 0  9993
2 55982  42.0027 198.8230 0005638   7.3140 352.7781 15.38155967124981
Source of the keplerian elements: AFSPC